ABS-3

Last updated on Fri Jan 12 2018 00:19:05 GMT+0000 (Coordinated Universal Time)

1 24901U 97042A 18011.57643419 .00000032 00000-0 00000-0 0 9993 2 24901 5.2677 62.1313 0009321 206.2696 258.2421 0.99260654 74676
UTC large
Height (km)
Speed (km/s)
/
Latitude / Longitude
Inclination (degrees)
Orbital Period (minutes)
Azimuth
Elevation
Range (km)
Doppler Factor

Next 0 passes for location: London (51.5072 / 0.1276)

Sorry there are no passes over London.